| time (UTC) | temp F | wind direction | speed MPH | gust MPH | rain 1hr in | rain 24hr in | rain mn in | humidity % | barometer mb |
| 20260509003803 | 49 | 311 | 0.0 | 0.0 | 0.00 | 0.00 | 0.00 | 63 | 996.4 |
| 20260509003257 | 49 | 311 | 0.0 | 1.0 | 0.00 | 0.00 | 0.00 | 62 | 996.2 |
| 20260509002751 | 49 | 311 | 0.0 | 1.0 | 0.00 | 0.00 | 0.00 | 61 | 996.2 |
| 20260509002245 | 50 | 311 | 0.0 | 1.0 | 0.00 | 0.00 | 0.00 | 59 | 996.2 |
| 20260509001738 | 50 | 311 | 0.0 | 1.0 | 0.00 | 0.00 | 0.00 | 59 | 996.2 |
| 20260509001233 | 50 | 311 | 0.0 | 2.0 | 0.00 | 0.00 | 0.00 | 58 | 996.1 |
| 20260509000727 | 50 | 311 | 0.0 | 2.0 | 0.00 | 0.00 | 0.00 | 55 | 996.0 |
| 20260509000221 | 51 | 311 | 0.0 | 2.0 | 0.00 | 0.00 | 0.00 | 56 | 995.9 |
| 20260508235714 | 51 | 311 | 0.0 | 2.0 | 0.00 | 0.00 | 0.00 | 55 | 995.7 |
| 20260508235209 | 51 | 311 | 0.0 | 1.0 | 0.00 | 0.00 | 0.00 | 54 | 995.7 |
| 20260508234703 | 51 | 311 | 0.0 | 2.0 | 0.00 | 0.00 | 0.00 | 54 | 995.7 |
| 20260508233650 | 52 | 311 | 0.0 | 2.0 | 0.00 | 0.00 | 0.00 | 52 | 995.4 |
| 20260508232638 | 53 | 311 | 1.0 | 2.0 | 0.00 | 0.00 | 0.00 | 49 | 995.3 |
| 20260508232132 | 53 | 311 | 1.0 | 2.0 | 0.00 | 0.00 | 0.00 | 49 | 995.2 |
| 20260508231627 | 54 | 311 | 1.0 | 3.0 | 0.00 | 0.00 | 0.00 | 48 | 995.2 |
| 20260508230615 | 54 | 311 | 2.0 | 3.0 | 0.00 | 0.00 | 0.00 | 46 | 995.1 |
| 20260508230109 | 54 | 311 | 1.0 | 4.0 | 0.00 | 0.00 | 0.00 | 45 | 995.0 |
| 20260508225602 | 54 | 312 | 0.0 | 4.0 | 0.00 | 0.00 | 0.00 | 46 | 995.0 |
| 20260508225056 | 54 | 0 | 0.0 | 2.0 | 0.00 | 0.00 | 0.00 | 44 | 995.0 |
| 20260508224046 | 55 | 0 | 1.0 | 2.0 | 0.00 | 0.00 | 0.00 | 43 | 994.9 |
| 20260508223032 | 55 | 11 | 0.0 | 1.0 | 0.00 | 0.00 | 0.00 | 42 | 994.9 |
| 20260508222527 | 55 | 11 | 0.0 | 1.0 | 0.00 | 0.00 | 0.00 | 40 | 994.8 |
| 20260508222021 | 56 | 12 | 0.0 | 0.0 | 0.00 | 0.00 | 0.00 | 40 | 994.8 |
| 20260508221009 | 56 | 12 | 1.0 | 2.0 | 0.00 | 0.00 | 0.00 | 39 | 994.8 |
| 20260508220503 | 56 | 92 | 1.0 | 3.0 | 0.00 | 0.00 | 0.00 | 39 | 994.7 |
| 20260508215956 | 56 | 92 | 1.0 | 3.0 | 0.00 | 0.00 | 0.00 | 40 | 994.6 |
| 20260508214438 | 57 | 326 | 2.0 | 4.0 | 0.00 | 0.00 | 0.00 | 37 | 994.5 |
| 20260508213436 | 57 | 323 | 2.0 | 4.0 | 0.00 | 0.00 | 0.00 | 37 | 994.5 |
| 20260508212936 | 57 | 305 | 2.0 | 5.0 | 0.00 | 0.00 | 0.00 | 37 | 994.5 |
| 20260508211434 | 57 | 53 | 1.0 | 3.0 | 0.00 | 0.00 | 0.00 | 39 | 994.5 |
| 20260508205931 | 57 | 92 | 2.0 | 4.0 | 0.00 | 0.00 | 0.00 | 38 | 994.4 |
| 20260508205431 | 56 | 72 | 2.0 | 4.0 | 0.00 | 0.00 | 0.00 | 37 | 994.4 |
| 20260508204932 | 56 | 335 | 1.0 | 4.0 | 0.00 | 0.00 | 0.00 | 39 | 994.2 |
| 20260508204432 | 57 | 292 | 1.0 | 4.0 | 0.00 | 0.00 | 0.00 | 38 | 994.2 |
| 20260508203432 | 57 | 337 | 2.0 | 5.0 | 0.00 | 0.00 | 0.00 | 39 | 994.0 |
| 20260508202931 | 57 | 292 | 2.0 | 4.0 | 0.00 | 0.00 | 0.00 | 37 | 994.2 |
| 20260508201929 | 58 | 300 | 2.0 | 5.0 | 0.00 | 0.00 | 0.00 | 37 | 994.1 |
| 20260508201428 | 57 | 286 | 2.0 | 5.0 | 0.00 | 0.00 | 0.00 | 40 | 994.1 |
| 20260508200927 | 57 | 311 | 2.0 | 5.0 | 0.00 | 0.00 | 0.00 | 38 | 994.0 |
| 20260508200428 | 57 | 288 | 1.0 | 5.0 | 0.00 | 0.00 | 0.00 | 38 | 994.1 |
| 20260508195928 | 56 | 5 | 1.0 | 3.0 | 0.00 | 0.00 | 0.00 | 40 | 994.0 |
| 20260508195428 | 56 | 16 | 1.0 | 3.0 | 0.00 | 0.00 | 0.00 | 40 | 994.0 |
| 20260508194927 | 56 | 355 | 2.0 | 7.0 | 0.00 | 0.00 | 0.00 | 42 | 994.0 |
| 20260508194427 | 56 | 333 | 2.0 | 7.0 | 0.00 | 0.00 | 0.00 | 38 | 994.1 |
| 20260508193929 | 56 | 21 | 1.0 | 3.0 | 0.00 | 0.00 | 0.00 | 41 | 994.1 |
| 20260508193424 | 56 | 32 | 1.0 | 3.0 | 0.00 | 0.00 | 0.00 | 39 | 994.1 |
| 20260508192924 | 56 | 98 | 1.0 | 4.0 | 0.00 | 0.00 | 0.00 | 37 | 994.2 |
| 20260508192424 | 56 | 327 | 1.0 | 4.0 | 0.00 | 0.00 | 0.00 | 39 | 994.2 |
| 20260508191924 | 56 | 331 | 2.0 | 4.0 | 0.00 | 0.00 | 0.00 | 39 | 994.2 |
| 20260508191424 | 56 | 344 | 2.0 | 4.0 | 0.00 | 0.00 | 0.00 | 39 | 994.2 |
| 20260508190925 | 56 | 101 | 1.0 | 3.0 | 0.00 | 0.00 | 0.00 | 39 | 994.2 |
| 20260508190425 | 56 | 303 | 1.0 | 3.0 | 0.00 | 0.00 | 0.00 | 39 | 994.2 |
| 20260508185924 | 56 | 297 | 2.0 | 5.0 | 0.00 | 0.00 | 0.00 | 39 | 994.2 |
| 20260508185425 | 56 | 297 | 2.0 | 5.0 | 0.00 | 0.00 | 0.00 | 37 | 994.2 |
| 20260508184919 | 57 | 306 | 2.0 | 4.0 | 0.00 | 0.00 | 0.00 | 37 | 994.3 |
| 20260508184413 | 57 | 355 | 2.0 | 4.0 | 0.00 | 0.00 | 0.00 | 38 | 994.4 |
| 20260508183907 | 57 | 319 | 2.0 | 4.0 | 0.00 | 0.00 | 0.00 | 38 | 994.4 |
| 20260508183401 | 56 | 310 | 2.0 | 4.0 | 0.00 | 0.00 | 0.00 | 40 | 994.4 |
| 20260508182855 | 56 | 311 | 2.0 | 4.0 | 0.00 | 0.00 | 0.00 | 37 | 994.4 |
| 20260508182349 | 57 | 265 | 2.0 | 6.0 | 0.00 | 0.00 | 0.00 | 39 | 994.4 |
| 20260508180831 | 56 | 288 | 2.0 | 5.0 | 0.00 | 0.00 | 0.00 | 36 | 994.4 |
| 20260508180325 | 56 | 238 | 2.0 | 5.0 | 0.00 | 0.00 | 0.00 | 37 | 994.3 |
| 20260508175818 | 56 | 311 | 2.0 | 6.0 | 0.00 | 0.00 | 0.00 | 37 | 994.4 |
| 20260508175313 | 56 | 310 | 2.0 | 6.0 | 0.00 | 0.00 | 0.00 | 38 | 994.4 |
| 20260508174807 | 56 | 338 | 2.0 | 4.0 | 0.00 | 0.00 | 0.00 | 40 | 994.3 |
| 20260508174300 | 55 | 5 | 2.0 | 4.0 | 0.00 | 0.00 | 0.00 | 40 | 994.3 |
| 20260508173755 | 55 | 309 | 2.0 | 4.0 | 0.00 | 0.00 | 0.00 | 38 | 994.4 |
| 20260508173249 | 55 | 306 | 2.0 | 7.0 | 0.00 | 0.00 | 0.00 | 37 | 994.4 |
| 20260508172743 | 56 | 294 | 3.0 | 7.0 | 0.00 | 0.00 | 0.00 | 35 | 994.4 |
| 20260508172237 | 56 | 309 | 3.0 | 6.0 | 0.00 | 0.00 | 0.00 | 37 | 994.4 |
| 20260508171731 | 57 | 275 | 3.0 | 10.0 | 0.00 | 0.00 | 0.00 | 36 | 994.4 |
| 20260508170719 | 56 | 302 | 2.0 | 4.0 | 0.00 | 0.00 | 0.00 | 37 | 994.2 |
| 20260508165707 | 56 | 306 | 3.0 | 8.0 | 0.00 | 0.00 | 0.00 | 35 | 994.3 |
| 20260508165201 | 57 | 296 | 3.0 | 8.0 | 0.00 | 0.00 | 0.00 | 36 | 994.2 |
| 20260508164655 | 57 | 304 | 2.0 | 6.0 | 0.00 | 0.00 | 0.00 | 35 | 994.2 |
| 20260508164149 | 56 | 305 | 2.0 | 5.0 | 0.00 | 0.00 | 0.00 | 37 | 994.2 |
| 20260508163643 | 56 | 109 | 2.0 | 5.0 | 0.00 | 0.00 | 0.00 | 35 | 994.2 |
| 20260508163137 | 57 | 244 | 2.0 | 5.0 | 0.00 | 0.00 | 0.00 | 36 | 994.3 |
| 20260508162631 | 56 | 296 | 2.0 | 4.0 | 0.00 | 0.00 | 0.00 | 36 | 994.2 |
| 20260508162125 | 56 | 346 | 2.0 | 4.0 | 0.00 | 0.00 | 0.00 | 40 | 994.1 |
| 20260508160607 | 56 | 300 | 2.0 | 3.0 | 0.00 | 0.00 | 0.00 | 37 | 994.1 |
| 20260508155048 | 55 | 300 | 2.0 | 5.0 | 0.00 | 0.00 | 0.00 | 39 | 994.0 |
| 20260508154543 | 54 | 308 | 2.0 | 5.0 | 0.00 | 0.00 | 0.00 | 36 | 994.2 |
| 20260508153531 | 55 | 336 | 2.0 | 7.0 | 0.00 | 0.00 | 0.00 | 41 | 994.4 |
| 20260508152519 | 54 | 31 | 2.0 | 9.0 | 0.00 | 0.00 | 0.00 | 41 | 994.5 |
| 20260508152012 | 54 | 305 | 2.0 | 3.0 | 0.00 | 0.00 | 0.00 | 43 | 994.4 |
| 20260508151507 | 54 | 284 | 1.0 | 3.0 | 0.00 | 0.00 | 0.00 | 45 | 994.4 |
| 20260508151000 | 53 | 284 | 1.0 | 3.0 | 0.00 | 0.00 | 0.00 | 45 | 994.5 |
| 20260508150454 | 53 | 284 | 1.0 | 3.0 | 0.00 | 0.00 | 0.00 | 44 | 994.5 |
| 20260508145949 | 53 | 256 | 1.0 | 3.0 | 0.00 | 0.00 | 0.00 | 46 | 994.5 |
| 20260508145443 | 53 | 247 | 1.0 | 3.0 | 0.00 | 0.00 | 0.00 | 44 | 994.5 |
| 20260508144937 | 53 | 286 | 2.0 | 3.0 | 0.00 | 0.00 | 0.00 | 45 | 994.6 |
| 20260508143925 | 52 | 347 | 2.0 | 5.0 | 0.00 | 0.00 | 0.00 | 48 | 994.7 |
| 20260508143419 | 52 | 355 | 1.0 | 4.0 | 0.00 | 0.00 | 0.00 | 48 | 994.7 |
| 20260508142913 | 51 | 225 | 1.0 | 3.0 | 0.00 | 0.00 | 0.00 | 52 | 994.8 |
| 20260508142407 | 51 | 5 | 2.0 | 5.0 | 0.00 | 0.00 | 0.00 | 47 | 994.9 |
| 20260508141900 | 51 | 48 | 2.0 | 5.0 | 0.00 | 0.00 | 0.00 | 49 | 995.0 |
| 20260508141354 | 51 | 301 | 1.0 | 4.0 | 0.00 | 0.00 | 0.00 | 49 | 995.0 |
| 20260508140851 | 51 | 355 | 1.0 | 3.0 | 0.00 | 0.00 | 0.00 | 48 | 995.0 |
| 20260508140351 | 51 | 111 | 1.0 | 4.0 | 0.00 | 0.00 | 0.00 | 50 | 995.0 |
| 20260508135850 | 51 | 282 | 2.0 | 4.0 | 0.00 | 0.00 | 0.00 | 49 | 995.1 |
| 20260508135348 | 51 | 295 | 2.0 | 5.0 | 0.00 | 0.00 | 0.00 | 52 | 995.2 |
| 20260508134845 | 51 | 295 | 2.0 | 5.0 | 0.00 | 0.00 | 0.00 | 50 | 995.2 |
| 20260508134346 | 51 | 277 | 2.0 | 4.0 | 0.00 | 0.00 | 0.00 | 49 | 995.1 |
| 20260508133844 | 51 | 311 | 1.0 | 3.0 | 0.00 | 0.01 | 0.00 | 50 | 995.1 |
| 20260508133344 | 51 | 336 | 1.0 | 4.0 | 0.00 | 0.01 | 0.00 | 53 | 995.1 |
| 20260508132845 | 51 | 344 | 1.0 | 4.0 | 0.00 | 0.01 | 0.00 | 51 | 995.0 |
| 20260508132345 | 51 | 290 | 1.0 | 3.0 | 0.00 | 0.01 | 0.00 | 53 | 995.1 |
| 20260508131846 | 50 | 78 | 1.0 | 3.0 | 0.00 | 0.01 | 0.00 | 54 | 995.1 |
| 20260508131346 | 50 | 304 | 0.0 | 2.0 | 0.00 | 0.01 | 0.00 | 58 | 995.2 |
| 20260508130845 | 49 | 304 | 1.0 | 2.0 | 0.00 | 0.01 | 0.00 | 58 | 995.1 |
| 20260508125844 | 49 | 301 | 1.0 | 3.0 | 0.00 | 0.01 | 0.00 | 57 | 995.1 |
| 20260508125345 | 49 | 302 | 1.0 | 3.0 | 0.00 | 0.01 | 0.00 | 58 | 995.1 |
| 20260508124842 | 48 | 302 | 1.0 | 3.0 | 0.00 | 0.01 | 0.00 | 61 | 995.1 |
| 20260508124341 | 48 | 302 | 2.0 | 4.0 | 0.00 | 0.01 | 0.00 | 61 | 995.1 |
| 20260508123841 | 47 | 317 | 1.0 | 4.0 | 0.00 | 0.01 | 0.00 | 64 | 995.1 |
| 20260508122842 | 45 | 342 | 0.0 | 0.0 | 0.00 | 0.01 | 0.00 | 70 | 995.1 |
| 20260508122341 | 44 | 342 | 0.0 | 0.0 | 0.00 | 0.01 | 0.00 | 71 | 995.1 |
| 20260508121841 | 43 | 342 | 0.0 | 0.0 | 0.00 | 0.01 | 0.00 | 75 | 995.1 |
| 20260508121341 | 42 | 342 | 0.0 | 0.0 | 0.00 | 0.01 | 0.00 | 76 | 995.2 |
| 20260508120842 | 42 | 342 | 0.0 | 0.0 | 0.00 | 0.01 | 0.00 | 78 | 995.2 |
| 20260508115340 | 40 | 342 | 0.0 | 0.0 | 0.00 | 0.01 | 0.00 | 83 | 995.3 |
| 20260508114341 | 38 | 342 | 0.0 | 0.0 | 0.00 | 0.01 | 0.00 | 86 | 995.3 |
| 20260508113841 | 38 | 342 | 0.0 | 0.0 | 0.00 | 0.01 | 0.00 | 87 | 995.3 |
| 20260508113341 | 37 | 342 | 0.0 | 0.0 | 0.00 | 0.01 | 0.00 | 87 | 995.3 |
| 20260508112841 | 37 | 342 | 0.0 | 0.0 | 0.00 | 0.01 | 0.00 | 87 | 995.3 |
| 20260508112338 | 36 | 342 | 0.0 | 0.0 | 0.00 | 0.01 | 0.00 | 87 | 995.3 |
| 20260508111832 | 36 | 342 | 0.0 | 0.0 | 0.00 | 0.01 | 0.00 | 88 | 995.2 |
| 20260508111326 | 35 | 342 | 0.0 | 0.0 | 0.00 | 0.01 | 0.00 | 88 | 995.1 |
| 20260508110315 | 34 | 342 | 0.0 | 0.0 | 0.00 | 0.01 | 0.00 | 88 | 995.0 |
| 20260508105808 | 34 | 342 | 0.0 | 0.0 | 0.00 | 0.01 | 0.00 | 88 | 995.0 |
| 20260508104757 | 33 | 342 | 0.0 | 0.0 | 0.00 | 0.01 | 0.00 | 88 | 994.9 |
| 20260508104251 | 33 | 342 | 0.0 | 0.0 | 0.00 | 0.01 | 0.00 | 87 | 994.9 |
| 20260508103745 | 33 | 342 | 0.0 | 0.0 | 0.00 | 0.01 | 0.00 | 87 | 994.8 |
| 20260508102732 | 33 | 342 | 0.0 | 0.0 | 0.00 | 0.01 | 0.00 | 87 | 994.7 |
| 20260508101721 | 33 | 342 | 0.0 | 0.0 | 0.00 | 0.01 | 0.00 | 87 | 994.6 |
| 20260508101215 | 33 | 342 | 0.0 | 0.0 | 0.00 | 0.01 | 0.00 | 87 | 994.5 |
| 20260508100709 | 33 | 342 | 0.0 | 0.0 | 0.00 | 0.01 | 0.00 | 87 | 994.5 |
| 20260508100203 | 33 | 342 | 0.0 | 0.0 | 0.00 | 0.01 | 0.00 | 87 | 994.6 |
| 20260508094139 | 33 | 342 | 0.0 | 0.0 | 0.00 | 0.01 | 0.00 | 86 | 994.4 |
| 20260508093632 | 33 | 342 | 0.0 | 0.0 | 0.00 | 0.01 | 0.00 | 86 | 994.3 |
| 20260508093126 | 33 | 342 | 0.0 | 0.0 | 0.00 | 0.01 | 0.00 | 87 | 994.1 |
| 20260508092620 | 33 | 342 | 0.0 | 0.0 | 0.00 | 0.01 | 0.00 | 87 | 994.0 |
| 20260508092114 | 33 | 342 | 0.0 | 0.0 | 0.00 | 0.01 | 0.00 | 86 | 994.1 |
| 20260508091608 | 33 | 342 | 0.0 | 0.0 | 0.00 | 0.01 | 0.00 | 86 | 994.1 |
| 20260508091102 | 33 | 342 | 0.0 | 0.0 | 0.00 | 0.01 | 0.00 | 86 | 994.0 |
| 20260508085545 | 33 | 342 | 0.0 | 0.0 | 0.00 | 0.01 | 0.00 | 87 | 994.0 |
| 20260508085038 | 33 | 342 | 0.0 | 0.0 | 0.00 | 0.01 | 0.00 | 87 | 994.0 |
| 20260508084533 | 33 | 342 | 0.0 | 0.0 | 0.00 | 0.01 | 0.00 | 87 | 993.9 |
| 20260508084026 | 33 | 342 | 0.0 | 0.0 | 0.00 | 0.01 | 0.00 | 86 | 994.0 |
| 20260508083521 | 33 | 342 | 0.0 | 0.0 | 0.00 | 0.01 | 0.00 | 86 | 994.0 |
| 20260508083015 | 33 | 342 | 0.0 | 0.0 | 0.00 | 0.01 | 0.00 | 86 | 994.0 |
| 20260508082509 | 33 | 342 | 0.0 | 0.0 | 0.00 | 0.01 | 0.00 | 86 | 993.9 |
| 20260508082004 | 33 | 342 | 0.0 | 0.0 | 0.00 | 0.01 | 0.00 | 86 | 993.9 |
| 20260508080950 | 33 | 342 | 0.0 | 0.0 | 0.00 | 0.01 | 0.00 | 86 | 993.7 |
| 20260508080445 | 34 | 342 | 0.0 | 0.0 | 0.00 | 0.01 | 0.00 | 86 | 993.6 |
| 20260508075938 | 34 | 342 | 0.0 | 0.0 | 0.00 | 0.01 | 0.00 | 85 | 993.6 |
| 20260508075432 | 34 | 342 | 0.0 | 0.0 | 0.00 | 0.01 | 0.00 | 85 | 993.5 |
| 20260508074926 | 34 | 342 | 0.0 | 0.0 | 0.00 | 0.01 | 0.00 | 85 | 993.5 |
| 20260508074420 | 34 | 342 | 0.0 | 0.0 | 0.00 | 0.01 | 0.00 | 85 | 993.4 |
| 20260508073914 | 34 | 342 | 0.0 | 0.0 | 0.00 | 0.01 | 0.00 | 85 | 993.4 |
| 20260508073408 | 34 | 342 | 0.0 | 0.0 | 0.00 | 0.01 | 0.00 | 85 | 993.4 |
| 20260508072902 | 35 | 342 | 0.0 | 0.0 | 0.00 | 0.01 | 0.00 | 85 | 993.4 |
| 20260508072357 | 35 | 342 | 0.0 | 0.0 | 0.00 | 0.01 | 0.00 | 84 | 993.4 |
| 20260508071851 | 35 | 342 | 0.0 | 0.0 | 0.00 | 0.01 | 0.00 | 84 | 993.5 |
| 20260508071345 | 35 | 342 | 0.0 | 0.0 | 0.00 | 0.01 | 0.00 | 84 | 993.5 |
| 20260508070838 | 35 | 342 | 0.0 | 0.0 | 0.00 | 0.01 | 0.00 | 84 | 993.5 |
| 20260508070332 | 35 | 342 | 0.0 | 0.0 | 0.00 | 0.01 | 0.00 | 84 | 993.5 |
| 20260508065826 | 35 | 342 | 0.0 | 0.0 | 0.00 | 0.01 | 0.00 | 84 | 993.4 |
| 20260508065320 | 35 | 342 | 0.0 | 0.0 | 0.00 | 0.01 | 0.00 | 83 | 993.5 |
| 20260508064814 | 35 | 342 | 0.0 | 0.0 | 0.00 | 0.01 | 0.00 | 83 | 993.6 |
| 20260508064308 | 36 | 342 | 0.0 | 0.0 | 0.00 | 0.01 | 0.00 | 83 | 993.6 |
| 20260508063802 | 36 | 342 | 0.0 | 0.0 | 0.00 | 0.01 | 0.00 | 83 | 993.5 |
| 20260508063256 | 36 | 342 | 0.0 | 0.0 | 0.00 | 0.01 | 0.00 | 83 | 993.4 |
| 20260508062750 | 36 | 342 | 0.0 | 0.0 | 0.00 | 0.01 | 0.00 | 83 | 993.2 |
| 20260508062244 | 36 | 342 | 0.0 | 0.0 | 0.00 | 0.01 | 0.00 | 83 | 993.1 |
| 20260508061744 | 36 | 342 | 0.0 | 0.0 | 0.00 | 0.01 | 0.00 | 83 | 993.3 |
| 20260508060741 | 37 | 342 | 0.0 | 0.0 | 0.00 | 0.01 | 0.00 | 82 | 993.7 |
| 20260508060240 | 37 | 342 | 0.0 | 0.0 | 0.00 | 0.01 | 0.00 | 82 | 993.7 |
| 20260508055740 | 37 | 342 | 0.0 | 0.0 | 0.00 | 0.01 | 0.00 | 81 | 993.6 |
| 20260508055238 | 37 | 342 | 0.0 | 0.0 | 0.00 | 0.01 | 0.00 | 81 | 993.7 |
| 20260508053736 | 38 | 342 | 0.0 | 0.0 | 0.00 | 0.01 | 0.00 | 81 | 993.9 |
| 20260508052735 | 38 | 342 | 0.0 | 0.0 | 0.00 | 0.01 | 0.00 | 80 | 994.0 |
| 20260508052235 | 38 | 342 | 0.0 | 0.0 | 0.00 | 0.01 | 0.00 | 80 | 993.9 |
| 20260508051735 | 38 | 342 | 0.0 | 0.0 | 0.00 | 0.01 | 0.00 | 80 | 993.9 |
| 20260508051236 | 38 | 342 | 0.0 | 0.0 | 0.00 | 0.01 | 0.00 | 79 | 994.0 |
| 20260508050732 | 38 | 342 | 0.0 | 0.0 | 0.00 | 0.01 | 0.00 | 80 | 994.1 |
| 20260508050231 | 39 | 342 | 0.0 | 0.0 | 0.00 | 0.01 | 0.00 | 79 | 994.1 |
| 20260508045732 | 39 | 342 | 0.0 | 0.0 | 0.00 | 0.01 | 0.00 | 78 | 994.1 |
| 20260508045232 | 39 | 342 | 0.0 | 0.0 | 0.00 | 0.01 | 0.00 | 78 | 994.0 |
| 20260508044732 | 39 | 342 | 0.0 | 1.0 | 0.00 | 0.01 | 0.00 | 78 | 994.1 |
| 20260508044233 | 39 | 342 | 1.0 | 2.0 | 0.00 | 0.01 | 0.00 | 78 | 994.1 |
| 20260508043732 | 40 | 342 | 0.0 | 2.0 | 0.00 | 0.01 | 0.00 | 78 | 994.1 |
| 20260508042732 | 40 | 342 | 0.0 | 1.0 | 0.00 | 0.01 | 0.00 | 77 | 994.1 |
| 20260508042229 | 40 | 342 | 0.0 | 2.0 | 0.00 | 0.01 | 0.00 | 76 | 994.1 |
| 20260508041228 | 41 | 342 | 0.0 | 0.0 | 0.00 | 0.01 | 0.00 | 75 | 994.2 |
| 20260508040727 | 41 | 342 | 0.0 | 0.0 | 0.00 | 0.01 | 0.00 | 74 | 994.2 |
| 20260508040227 | 41 | 342 | 0.0 | 0.0 | 0.00 | 0.01 | 0.00 | 74 | 994.2 |
| 20260508035726 | 41 | 342 | 0.0 | 0.0 | 0.00 | 0.01 | 0.01 | 74 | 994.2 |
| 20260508034725 | 42 | 342 | 0.0 | 0.0 | 0.00 | 0.01 | 0.01 | 73 | 994.2 |
| 20260508034224 | 42 | 342 | 0.0 | 0.0 | 0.00 | 0.01 | 0.01 | 73 | 994.2 |
| 20260508033722 | 42 | 342 | 0.0 | 1.0 | 0.00 | 0.01 | 0.01 | 73 | 994.2 |
| 20260508032719 | 43 | 342 | 0.0 | 2.0 | 0.00 | 0.01 | 0.01 | 71 | 994.2 |
| 20260508032214 | 43 | 342 | 0.0 | 2.0 | 0.00 | 0.01 | 0.01 | 70 | 994.1 |
| 20260508031715 | 43 | 338 | 0.0 | 0.0 | 0.00 | 0.01 | 0.01 | 70 | 994.2 |
| 20260508031215 | 44 | 338 | 0.0 | 0.0 | 0.00 | 0.01 | 0.01 | 69 | 994.1 |
| 20260508030714 | 44 | 338 | 0.0 | 0.0 | 0.00 | 0.01 | 0.01 | 71 | 994.1 |
| 20260508030215 | 44 | 338 | 0.0 | 0.0 | 0.00 | 0.01 | 0.01 | 69 | 994.1 |
| 20260508025715 | 44 | 338 | 0.0 | 0.0 | 0.00 | 0.01 | 0.01 | 71 | 994.1 |
| 20260508025215 | 44 | 338 | 0.0 | 0.0 | 0.00 | 0.02 | 0.01 | 70 | 994.1 |
| 20260508024715 | 44 | 338 | 0.0 | 0.0 | 0.00 | 0.03 | 0.01 | 70 | 994.1 |
| 20260508023216 | 44 | 338 | 0.0 | 0.0 | 0.00 | 0.04 | 0.01 | 71 | 994.0 |
| 20260508022715 | 44 | 338 | 0.0 | 0.0 | 0.00 | 0.05 | 0.01 | 69 | 994.0 |
| 20260508022215 | 44 | 338 | 0.0 | 0.0 | 0.00 | 0.05 | 0.01 | 67 | 994.0 |
| 20260508021715 | 45 | 338 | 0.0 | 0.0 | 0.00 | 0.05 | 0.01 | 67 | 994.0 |
| 20260508021216 | 45 | 338 | 0.0 | 0.0 | 0.00 | 0.05 | 0.01 | 68 | 994.0 |
| 20260508020717 | 45 | 338 | 0.0 | 0.0 | 0.00 | 0.05 | 0.01 | 69 | 993.9 |
| 20260508020216 | 45 | 338 | 0.0 | 0.0 | 0.00 | 0.05 | 0.01 | 66 | 993.9 |
| 20260508015716 | 45 | 338 | 0.0 | 1.0 | 0.00 | 0.05 | 0.01 | 68 | 993.8 |
| 20260508015210 | 46 | 338 | 0.0 | 1.0 | 0.00 | 0.05 | 0.01 | 66 | 993.6 |
| 20260508014158 | 46 | 338 | 0.0 | 0.0 | 0.00 | 0.06 | 0.01 | 66 | 993.4 |
| 20260508013652 | 46 | 338 | 0.0 | 1.0 | 0.00 | 0.06 | 0.01 | 66 | 993.3 |
| 20260508013146 | 46 | 338 | 0.0 | 1.0 | 0.00 | 0.07 | 0.01 | 64 | 993.3 |
| 20260508012640 | 47 | 338 | 0.0 | 0.0 | 0.00 | 0.07 | 0.01 | 65 | 993.2 |
| 20260508010616 | 48 | 338 | 0.0 | 0.0 | 0.00 | 0.09 | 0.01 | 61 | 992.9 |
| 20260508010110 | 48 | 338 | 0.0 | 0.0 | 0.00 | 0.11 | 0.01 | 62 | 992.9 |
| 20260508005604 | 48 | 338 | 0.0 | 0.0 | 0.00 | 0.17 | 0.01 | 60 | 992.8 |
| 20260508005058 | 49 | 338 | 0.0 | 0.0 | 0.00 | 0.17 | 0.01 | 57 | 992.7 |
| 20260508004552 | 49 | 338 | 0.0 | 0.0 | 0.00 | 0.17 | 0.01 | 60 | 992.8 |